Погода Ливны

Погода Ливны : погода сейчас, прогноз погоды и архив. Всё, что Вы хотите узнать о погоде Ливны!

Хотите узнать прогноз погоды Ливны? Тогда Вам сюда: Погода Ливны

Поиск расширенной информации на нашем сайте:

Другие новости

Новости СМИ2

Главная страница сайта

Новости сайта

03.07.2017

Напоминаем, что на нашем специализированном сайте Метеоцентр.Азия вы можете получить высокодетализированные автоматические прогнозы погоды по пунктам России, СНГ и мира в авиационном формате (включающие направление и скорость ветра, видимость, явления погоды, количество и форму облачности, нижнюю и верхнюю границу облачности).

Рекомендуем: биолан

Погода Ливны - сегодня

Время (UTC), дата Ветер
(°,м/с) 
Видим.   Явления Облачность Т
(°С)
Тd
(°С)
f(%) Тe
(°С)
Pmin
(гПа)
dP
(гПа)
Po
(мм)
O2
(г/м3)
Тmin Tmax R s Состояние
почвы
21 17.10.18 330 (СЗ) 10 км    ясно 
+7.4 +5.1 85 +8  1027.2  0.3  754  295           
00 18.10.18 330 (СЗ) 10 км    ясно 
+4.9 +3.5 91 +6  1027.5  -0.1  754  298           
03 18.10.18 тихо ()   10 км    ясно 
+3.3 +2 91 +3  1027  -0.5  753  300  +3         
09 18.10.18 230 (ЮЗ) 10 км    ясно 
+18.1 +8.2 52 +19  1025.8  -0.2  753  283           
12 18.10.18 200 (Ю) 20000 м    ясно 
+22.4 +7.7 39 +22  1023.5  -2  752  279           
15 18.10.18 220 (ЮЗ) 10 км    ясно 
+17 +7.7 54 +18  1022.7  -1  751  284           
21 18.10.18 тихо ()   10 км    ясно 
+6.7 +4.9 88 +7  1023.2  -0.3  751  295           
00 19.10.18 020 (С) 10 км    ясно 
+4.7 +3.2 90 +6  1022.6  -0.7  750  297           
03 19.10.18 тихо ()   10 км    ясно 
+3.6 +2.3 91 +4  1022  -0.6  750  298  +2.9         
09 19.10.18 210 (ЮЗ) 20000 м    ясно 
+20.6 +6.3 39 +21  1019  -1.1  749  279           
12 19.10.18 210 (ЮЗ) 20000 м    ясно 
+22 +3.3 29 +22  1017.3  -1.5  747  278           
15 19.10.18 200 (Ю) 10 км    3/0 верхняя 
[Ci fib]
+15.8 +3.1 43 +17  1016.7  -1  747  284           
21 19.10.18 тихо ()   10 км    ясно верхняя 
[Ci fib]
+7.5 +2.7 72 +8  1017.1  -0.2  746  292           
00 20.10.18 тихо ()   10 км    ясно верхняя 
[Ci fib]
+4.9 +1.1 76 +5  1017.2  -0.2  746  295           
09 20.10.18 050 (СВ) 10 км    9/9 600 м 
[Sc]
+13.7 +6.9 63 +14  1019  0.8  748  286           
12 20.10.18 030 (СВ) 10 км    10/10 600 м 
[Sc]
+14.1 +6.2 59 +14  1018.9  -0.1  748  286           
15 20.10.18 350 (С) 10 км    3/3 600 м 
[Sc]
+9.3 +4.1 70 +9  1019.4  0.2  748  291           
21 20.10.18 010 (С) 10 км    3/0 верхняя 
[Ci fib]
+3.1 -0.1 79 +4  1021.4  0.8  749  298           
00 21.10.18 010 (С) 10 км    ясно 
+2 -0.2 85 +1  1021.6  0.2  749  300           
09 21.10.18 080 (В) 20000 м    6/0 верхняя 
[Cc]
+10.2 +1.9 56 +10  1023.1  0.5  751  291           
12 21.10.18 080 (В) 20000 м    5/0 верхняя 
[Cc]
+11.1 +2 53 +11  1023.2  0.1  751  290           
15 21.10.18 060 (СВ) 20000 м    3/0 верхняя 
[Ci fib]
+7.6 +0.3 60 +7  1024.2  0.8  752  295           
21 21.10.18 360 (С) 10 км    ясно 
-0.7 -3.2 83 -2  1026.5  0.1  753  304           
00 22.10.18 010 (С) 10 км    ясно 
-0.4 -2.8 84 -1  1026.1  -0.4  753  304           
03 22.10.18 010 (С) 10 км    ясно 
-0.9 -3.1 85 -3  1025.9  -0.2  752  305  -1         
Время (UTC), дата Ветер
(°,м/с) 
Видим.   Явления Облачность Т
(°С)
Тd
(°С)
f(%) Тe
(°С)
Pmin
(гПа)
dP
(гПа)
Po
(мм)
O2
(г/м3)
Тmin Tmax R s Состояние
почвы

Для получения пояснительной информации подведите курсор к названию столбца.

ПОГОДА Ливны - архив

Всё, что Вы хотите узнать о погоде Ливны - удобно и подробно!

Выберите нужную дату (начиная с 1 января 2015* года) и нажмите кнопку "Найти".
Будут отображены архивные сводки погоды по пункту Ливны, начиная с указанной даты.


Отображать данные в формате CSV (для использования в таблицах Excel)


Внимание! Наш архив погоды предназначен исключительно для личного некоммерческого использования в познавательных целях. Если Вам необходимы официальные справки о состоянии погоды (для производственных, юридических, коммерческих и т.п. целей), обращайтесь в органы Росгидромета.

*Примечание: данная дата относится к архиву по метеостанциям СССР (Россия, СНГ, Балтия).
Архив по метеостанциям Зарубежной Европы и Азии (кроме Китая) хранится 10 дней, по другим регионам земного шара (Китай, Африка, Америка, Австралия, Океания) - 1 день.

Ливны - район местоположения метеостанции


Название, широта, долгота, высота метеостанции:
Ливны 52.4°ш. 37.6°д. 179 м над ур. моря [Российская Федерация]

Дополнительная информация

В oтличие oт бoльшинства пoгoдных сайтoв мы публикуем пoдрoбную метеoинфoрмацию в детальнoм прoфессиoнальнoм фoрмате.

Характеристики температуры и влажнoсти вoздуха измеряются на высoте 2 м в тени вдали oт зданий и деревьев.
Скoрoсть ветра измеряется на высoте 10 м (на урoвне рoста челoвека скoрoсть ветра ниже в 1.5-2 раза). Если метеoстанция нахoдится в гoрoде или в лесу, тo скoрoсть ветра занижена на 2-4 м/с пo сравнению с oткрытым местoм. Скoрoсть ветра над акватoриями крупных рек и oзёр, а также на вершинах хoлмoв на 2-5 м/с выше, чем в oбычных услoвиях.
Атмoсфернoе давление в разных тoчках местнoсти мoжет значительнo oтличаться oт давления на метеoстанции, в зависимoсти oт услoвий рельефа (при пoдъёме на 10 м давление пoнижается примернo на 1 мм рт.ст.).